Погода в Засекове

Россия / Удмуртская Республика     57°51′09″N   52°25′50″E
темп.,
°C
ветер,
м/с
пор.,
м/с
влажн.,
%
обл.,
%
осадки,
мм/ч
давл.,
гПа
погр.,
м
8 мая, сб
сб801:00+11ююз51176100 0.0 1014359
04:00+9зюз3690100 0.0 1016143
07:00+9сз2386100 0.2 1017255
10:00+9с2284100 0.3 1018229
13:00+10с2277100 0.0 1018298
16:00+14вюв2264100 0.0 1017612
19:00+14ююв23705 0.0 101686
22:00+9юв37915 0.0 1016122
9 мая, вс
вс901:00+9юв38925 0.0 1016146
04:00+8юв399199 0.0 1016168
07:00+12ююв51274100 0.0 1015376
10:00+17ююв61052100 0.0 1015963
13:00+20ю794064 0.0 10142250
16:00+21ю6845100 0.0 10142569
19:00+17юв4959100 0.0 1014220
22:00+16ююв51351100 0.0 1015453
10 мая, пн
пн1001:00+14ююв4135996 0.0 1016320
04:00+12юз367297 0.0 1017126
07:00+14юв247595 0.0 1018147
10:00+15зюз4680100 0.1 1020717
13:00+10сз5788100 0.7 1023524
16:00+9сз4793100 2.6 1025482
19:00+8ссз588599 0.1 1027711
22:00+5ссв24860 0.2 102870
11 мая, вт
вт1101:00+4с23905 0.0 103042
04:00+4ссз22905 0.0 103024
07:00+7ссз23763 0.0 1031195
10:00+12с34465 0.0 10321248
13:00+14ссз44405 0.0 10311462
16:00+15сз4543100 0.0 10301460
19:00+14сз246058 0.0 1030108
22:00+10зсз2271100 0.0 103125
12 мая, ср
ср1201:00+9з2376100 0.0 103132
04:00+9зюз378096 0.0 1030120
07:00+12з4107583 0.0 1030309
10:00+17зсз5766100 0.0 1028620
13:00+20сз5754100 0.0 10281435
16:00+21сз56519 0.0 10271650
19:00+19зсз376480 0.0 1027222
22:00+14сз347649 0.0 102758